| time (UTC) | temp F | wind direction | speed knots | gust knots | rain 1hr in | rain 24hr in | rain mn in | humidity % | barometer mb |
| 20260906105554 | 69 | 131 | 0.0 | 0.0 | 0.00 | 0.00 | 0.00 | 95 | 1011.6 |
| 20260906105051 | 69 | 132 | 0.0 | 0.0 | 0.00 | 0.00 | 0.00 | 95 | 1011.5 |
| 20260906104549 | 69 | 129 | 0.0 | 0.0 | 0.00 | 0.00 | 0.00 | 95 | 1011.6 |
| 20260906104044 | 68 | 131 | 0.0 | 0.0 | 0.00 | 0.00 | 0.00 | 95 | 1011.7 |
| 20260906103542 | 68 | 131 | 0.0 | 0.0 | 0.00 | 0.00 | 0.00 | 95 | 1011.6 |
| 20260906103038 | 68 | 129 | 0.0 | 0.0 | 0.00 | 0.00 | 0.00 | 95 | 1011.5 |
| 20260906102537 | 68 | 131 | 0.0 | 0.0 | 0.00 | 0.00 | 0.00 | 95 | 1011.5 |
| 20260906102032 | 68 | 129 | 0.0 | 0.0 | 0.00 | 0.00 | 0.00 | 95 | 1011.6 |
| 20260906101527 | 69 | 129 | 0.0 | 0.0 | 0.00 | 0.00 | 0.00 | 95 | 1011.4 |
| 20260906101022 | 69 | 125 | 0.0 | 0.0 | 0.00 | 0.00 | 0.00 | 95 | 1011.5 |
| 20260906100517 | 69 | 131 | 0.0 | 0.0 | 0.00 | 0.00 | 0.00 | 95 | 1011.3 |
| 20260906100012 | 69 | 123 | 0.0 | 0.0 | 0.00 | 0.00 | 0.00 | 95 | 1011.3 |
| 20260906095507 | 69 | 116 | 0.0 | 0.0 | 0.00 | 0.00 | 0.00 | 95 | 1011.4 |
| 20260906095002 | 68 | 122 | 0.0 | 0.0 | 0.00 | 0.00 | 0.00 | 95 | 1011.2 |
| 20260906094501 | 68 | 132 | 0.0 | 0.0 | 0.00 | 0.00 | 0.00 | 95 | 1011.1 |
| 20260906093957 | 68 | 129 | 0.0 | 0.0 | 0.00 | 0.00 | 0.00 | 95 | 1010.9 |
| 20260906093454 | 68 | 131 | 0.0 | 0.0 | 0.00 | 0.00 | 0.00 | 95 | 1011.0 |
| 20260906092954 | 68 | 134 | 0.0 | 0.0 | 0.00 | 0.00 | 0.00 | 95 | 1011.1 |
| 20260906092453 | 68 | 134 | 0.0 | 0.0 | 0.00 | 0.00 | 0.00 | 95 | 1011.0 |
| 20260906091949 | 68 | 133 | 0.0 | 0.0 | 0.00 | 0.00 | 0.00 | 95 | 1010.5 |
| 20260906091444 | 68 | 131 | 0.0 | 0.0 | 0.00 | 0.00 | 0.00 | 95 | 1010.6 |
| 20260906090941 | 68 | 125 | 0.0 | 0.0 | 0.00 | 0.00 | 0.00 | 95 | 1010.9 |
| 20260906090436 | 68 | 130 | 0.0 | 0.0 | 0.00 | 0.00 | 0.00 | 95 | 1010.7 |
| 20260906085935 | 68 | 127 | 0.0 | 0.0 | 0.00 | 0.00 | 0.00 | 95 | 1010.6 |
| 20260906085435 | 68 | 131 | 0.0 | 0.0 | 0.00 | 0.00 | 0.00 | 95 | 1010.7 |
| 20260906084934 | 68 | 129 | 0.0 | 0.0 | 0.00 | 0.00 | 0.00 | 95 | 1010.7 |
| 20260906084430 | 68 | 120 | 0.0 | 0.0 | 0.00 | 0.00 | 0.00 | 95 | 1010.9 |
| 20260906083928 | 68 | 131 | 0.0 | 0.0 | 0.00 | 0.00 | 0.00 | 95 | 1010.7 |
| 20260906083424 | 68 | 126 | 0.0 | 0.0 | 0.00 | 0.00 | 0.00 | 95 | 1010.5 |
| 20260906082923 | 68 | 130 | 0.0 | 0.0 | 0.00 | 0.00 | 0.00 | 95 | 1010.8 |
| 20260906082419 | 68 | 133 | 0.0 | 0.0 | 0.00 | 0.00 | 0.00 | 95 | 1010.8 |
| 20260906081915 | 68 | 134 | 0.0 | 0.0 | 0.00 | 0.00 | 0.00 | 95 | 1010.6 |
| 20260906081410 | 69 | 131 | 0.0 | 0.0 | 0.00 | 0.00 | 0.00 | 95 | 1010.5 |
| 20260906080906 | 69 | 157 | 0.0 | 0.0 | 0.00 | 0.00 | 0.00 | 95 | 1010.7 |
| 20260906080402 | 69 | 151 | 0.0 | 0.0 | 0.00 | 0.00 | 0.00 | 95 | 1010.5 |
| 20260906075901 | 69 | 129 | 0.0 | 0.0 | 0.00 | 0.00 | 0.00 | 95 | 1010.4 |
| 20260906075356 | 69 | 130 | 0.0 | 0.0 | 0.00 | 0.00 | 0.00 | 95 | 1010.6 |
| 20260906074852 | 69 | 134 | 0.0 | 0.0 | 0.00 | 0.00 | 0.00 | 95 | 1010.6 |
| 20260906074351 | 69 | 134 | 0.0 | 0.0 | 0.00 | 0.00 | 0.00 | 95 | 1010.6 |
| 20260906073850 | 69 | 135 | 0.0 | 0.0 | 0.00 | 0.00 | 0.00 | 95 | 1010.8 |
| 20260906073345 | 69 | 141 | 0.0 | 0.0 | 0.00 | 0.00 | 0.00 | 95 | 1010.7 |
| 20260906072842 | 69 | 119 | 0.0 | 0.9 | 0.00 | 0.00 | 0.00 | 95 | 1011.1 |
| 20260906072337 | 69 | 131 | 0.0 | 0.0 | 0.00 | 0.00 | 0.00 | 95 | 1011.1 |
| 20260906071833 | 69 | 122 | 0.0 | 0.0 | 0.00 | 0.00 | 0.00 | 95 | 1011.0 |
| 20260906071328 | 69 | 133 | 0.0 | 0.0 | 0.00 | 0.00 | 0.00 | 95 | 1010.9 |
| 20260906070824 | 69 | 136 | 0.0 | 0.9 | 0.00 | 0.00 | 0.00 | 95 | 1011.0 |
| 20260906070319 | 69 | 137 | 0.0 | 0.0 | 0.00 | 0.00 | 0.00 | 95 | 1011.0 |
| 20260906065814 | 69 | 129 | 0.0 | 0.0 | 0.00 | 0.00 | 0.00 | 95 | 1010.9 |
| 20260906065309 | 69 | 127 | 0.0 | 0.9 | 0.00 | 0.00 | 0.00 | 95 | 1010.9 |
| 20260906064805 | 69 | 147 | 0.0 | 0.0 | 0.00 | 0.00 | 0.00 | 95 | 1010.9 |
| 20260906064300 | 69 | 153 | 0.0 | 0.0 | 0.00 | 0.00 | 0.00 | 95 | 1010.8 |
| 20260906063755 | 69 | 139 | 0.0 | 0.9 | 0.00 | 0.00 | 0.00 | 95 | 1010.9 |
| 20260906063251 | 69 | 132 | 0.0 | 0.0 | 0.00 | 0.00 | 0.00 | 95 | 1010.7 |
| 20260906062746 | 69 | 130 | 0.0 | 0.0 | 0.00 | 0.00 | 0.00 | 95 | 1010.6 |
| 20260906062245 | 69 | 156 | 0.9 | 2.6 | 0.00 | 0.00 | 0.00 | 95 | 1010.7 |
| 20260906061741 | 69 | 169 | 0.0 | 0.0 | 0.00 | 0.00 | 0.00 | 95 | 1010.9 |
| 20260906061237 | 69 | 144 | 0.0 | 0.0 | 0.00 | 0.00 | 0.00 | 95 | 1011.0 |
| 20260906060732 | 69 | 132 | 0.0 | 0.0 | 0.00 | 0.00 | 0.00 | 95 | 1010.7 |
| 20260906060230 | 69 | 130 | 0.0 | 0.0 | 0.00 | 0.00 | 0.00 | 95 | 1010.8 |
| 20260906055725 | 69 | 133 | 0.0 | 0.0 | 0.00 | 0.00 | 0.00 | 95 | 1010.8 |
| 20260906055220 | 69 | 134 | 0.0 | 0.0 | 0.00 | 0.00 | 0.00 | 95 | 1010.8 |
| 20260906054715 | 69 | 131 | 0.0 | 0.0 | 0.00 | 0.00 | 0.00 | 95 | 1010.7 |
| 20260906054210 | 69 | 131 | 0.0 | 0.0 | 0.00 | 0.00 | 0.00 | 95 | 1010.8 |
| 20260906053707 | 69 | 133 | 0.0 | 0.0 | 0.00 | 0.00 | 0.00 | 95 | 1010.9 |
| 20260906053202 | 69 | 132 | 0.0 | 0.0 | 0.00 | 0.00 | 0.00 | 95 | 1011.0 |
| 20260906052657 | 69 | 126 | 0.0 | 0.0 | 0.00 | 0.00 | 0.00 | 95 | 1011.0 |
| 20260906052153 | 69 | 131 | 0.0 | 0.0 | 0.00 | 0.00 | 0.00 | 95 | 1011.3 |
| 20260906051650 | 69 | 133 | 0.0 | 0.0 | 0.00 | 0.00 | 0.00 | 95 | 1011.3 |
| 20260906051149 | 69 | 132 | 0.0 | 0.0 | 0.00 | 0.00 | 0.00 | 95 | 1011.6 |
| 20260906050645 | 69 | 132 | 0.0 | 0.0 | 0.00 | 0.00 | 0.00 | 95 | 1011.5 |
| 20260906050139 | 69 | 120 | 0.0 | 0.0 | 0.00 | 0.00 | 0.00 | 95 | 1011.6 |
| 20260906045638 | 69 | 130 | 0.0 | 0.0 | 0.00 | 0.00 | 0.00 | 95 | 1011.3 |
| 20260906045133 | 69 | 137 | 0.0 | 0.0 | 0.00 | 0.00 | 0.00 | 95 | 1011.5 |
| 20260906044629 | 69 | 134 | 0.0 | 0.0 | 0.00 | 0.00 | 0.00 | 95 | 1011.6 |
| 20260906044125 | 69 | 134 | 0.0 | 0.0 | 0.00 | 0.00 | 0.00 | 95 | 1011.8 |
| 20260906043621 | 69 | 134 | 0.0 | 0.0 | 0.00 | 0.00 | 0.00 | 95 | 1011.6 |
| 20260906043116 | 70 | 133 | 0.0 | 0.0 | 0.00 | 0.00 | 0.00 | 95 | 1011.5 |
| 20260906042615 | 70 | 140 | 0.0 | 0.0 | 0.00 | 0.00 | 0.00 | 95 | 1011.6 |
| 20260906042109 | 70 | 126 | 0.0 | 0.0 | 0.00 | 0.00 | 0.00 | 95 | 1011.6 |
| 20260906041606 | 70 | 136 | 0.0 | 0.0 | 0.00 | 0.00 | 0.00 | 95 | 1011.6 |
| 20260906041100 | 70 | 132 | 0.0 | 0.0 | 0.00 | 0.00 | 0.00 | 95 | 1011.4 |
| 20260906040556 | 70 | 121 | 0.0 | 0.0 | 0.00 | 0.00 | 0.00 | 95 | 1011.7 |
| 20260906040051 | 70 | 132 | 0.0 | 0.0 | 0.00 | 0.00 | 0.00 | 95 | 1011.6 |
| 20260906035547 | 70 | 130 | 0.0 | 0.0 | 0.00 | 0.58 | 0.58 | 95 | 1011.6 |
| 20260906035042 | 70 | 122 | 0.0 | 0.0 | 0.00 | 0.58 | 0.58 | 95 | 1011.7 |
| 20260906034542 | 69 | 132 | 0.0 | 0.0 | 0.00 | 0.58 | 0.58 | 95 | 1011.7 |
| 20260906034037 | 70 | 131 | 0.0 | 0.0 | 0.00 | 0.58 | 0.58 | 95 | 1011.7 |
| 20260906033532 | 70 | 127 | 0.0 | 0.0 | 0.00 | 0.58 | 0.58 | 95 | 1011.8 |
| 20260906033028 | 70 | 120 | 0.0 | 0.0 | 0.00 | 0.58 | 0.58 | 95 | 1011.7 |
| 20260906032525 | 70 | 88 | 0.0 | 0.0 | 0.00 | 0.58 | 0.58 | 95 | 1011.9 |
| 20260906032024 | 70 | 135 | 0.0 | 0.0 | 0.00 | 0.58 | 0.58 | 95 | 1011.8 |
| 20260906031520 | 70 | 138 | 0.0 | 0.0 | 0.00 | 0.58 | 0.58 | 95 | 1011.9 |
| 20260906031010 | 70 | 124 | 0.0 | 0.0 | 0.00 | 0.58 | 0.58 | 95 | 1012.1 |
| 20260906030509 | 70 | 131 | 0.0 | 0.0 | 0.00 | 0.58 | 0.58 | 95 | 1012.1 |
| 20260906030009 | 70 | 125 | 0.0 | 0.0 | 0.00 | 0.58 | 0.58 | 95 | 1012.1 |
| 20260906025508 | 70 | 134 | 0.0 | 0.0 | 0.00 | 0.58 | 0.58 | 95 | 1012.0 |
| 20260906025006 | 70 | 116 | 0.0 | 0.9 | 0.00 | 0.58 | 0.58 | 95 | 1011.8 |
| 20260906024502 | 70 | 123 | 0.0 | 0.0 | 0.00 | 0.58 | 0.58 | 95 | 1012.1 |
| 20260906023956 | 70 | 132 | 0.0 | 0.0 | 0.00 | 0.58 | 0.58 | 95 | 1011.9 |
| 20260906023452 | 70 | 131 | 0.0 | 0.9 | 0.00 | 0.58 | 0.58 | 95 | 1012.1 |
| 20260906022947 | 70 | 118 | 0.9 | 0.9 | 0.00 | 0.58 | 0.58 | 95 | 1012.1 |
| 20260906022442 | 70 | 134 | 0.0 | 0.0 | 0.00 | 0.58 | 0.58 | 95 | 1011.9 |
| 20260906021937 | 70 | 135 | 0.0 | 0.0 | 0.00 | 0.58 | 0.58 | 95 | 1011.9 |
| 20260906021432 | 70 | 130 | 0.0 | 0.0 | 0.00 | 0.58 | 0.58 | 95 | 1012.1 |
| 20260906020926 | 70 | 133 | 0.0 | 0.0 | 0.00 | 0.58 | 0.58 | 95 | 1011.9 |
| 20260906020421 | 70 | 133 | 0.0 | 0.0 | 0.00 | 0.58 | 0.58 | 95 | 1011.8 |
| 20260906015921 | 70 | 132 | 0.0 | 0.0 | 0.00 | 0.58 | 0.58 | 95 | 1011.5 |
| 20260906015415 | 70 | 121 | 0.9 | 0.9 | 0.00 | 0.58 | 0.58 | 95 | 1011.6 |
| 20260906014914 | 70 | 139 | 0.0 | 0.0 | 0.00 | 0.58 | 0.58 | 95 | 1011.6 |
| 20260906014409 | 70 | 131 | 0.0 | 0.0 | 0.00 | 0.58 | 0.58 | 95 | 1011.7 |
| 20260906013905 | 70 | 123 | 0.9 | 0.9 | 0.00 | 0.58 | 0.58 | 95 | 1011.5 |
| 20260906013401 | 70 | 121 | 0.0 | 0.0 | 0.00 | 0.58 | 0.58 | 95 | 1011.6 |
| 20260906012856 | 70 | 130 | 0.0 | 0.9 | 0.00 | 0.58 | 0.58 | 95 | 1011.5 |
| 20260906012350 | 70 | 128 | 0.0 | 0.9 | 0.00 | 0.58 | 0.58 | 95 | 1011.4 |
| 20260906011850 | 70 | 132 | 0.0 | 0.9 | 0.00 | 0.58 | 0.58 | 95 | 1011.5 |
| 20260906011345 | 70 | 132 | 0.0 | 1.7 | 0.00 | 0.58 | 0.58 | 95 | 1011.4 |
| 20260906010841 | 70 | 134 | 0.0 | 0.0 | 0.00 | 0.58 | 0.58 | 95 | 1011.4 |
| 20260906010337 | 70 | 139 | 0.9 | 0.9 | 0.00 | 0.58 | 0.58 | 95 | 1011.6 |
| 20260906005832 | 70 | 138 | 0.0 | 1.7 | 0.00 | 0.58 | 0.58 | 95 | 1011.6 |
| 20260906005331 | 70 | 133 | 0.0 | 0.9 | 0.00 | 0.58 | 0.58 | 95 | 1011.6 |
| 20260906004830 | 70 | 98 | 0.9 | 1.7 | 0.00 | 0.58 | 0.58 | 95 | 1011.8 |
| 20260906004330 | 70 | 131 | 0.0 | 0.0 | 0.00 | 0.58 | 0.58 | 95 | 1011.8 |
| 20260906003825 | 70 | 131 | 0.0 | 0.9 | 0.00 | 0.58 | 0.58 | 95 | 1011.7 |
| 20260906003321 | 70 | 123 | 0.0 | 0.9 | 0.00 | 0.58 | 0.58 | 95 | 1011.6 |
| 20260906002816 | 70 | 119 | 0.0 | 0.0 | 0.00 | 0.58 | 0.58 | 95 | 1011.7 |
| 20260906002315 | 71 | 159 | 0.0 | 0.0 | 0.00 | 0.58 | 0.58 | 95 | 1011.7 |
| 20260906001811 | 71 | 177 | 1.7 | 1.7 | 0.00 | 0.58 | 0.58 | 95 | 1011.6 |
| 20260906001306 | 71 | 152 | 0.9 | 0.9 | 0.00 | 0.58 | 0.58 | 95 | 1011.4 |
| 20260906000801 | 71 | 320 | 2.6 | 5.2 | 0.00 | 0.58 | 0.58 | 95 | 1011.2 |
| 20260906000256 | 71 | 239 | 3.5 | 4.3 | 0.00 | 0.58 | 0.58 | 95 | 1010.8 |
| 20260905235751 | 71 | 181 | 0.9 | 0.9 | 0.00 | 0.58 | 0.58 | 95 | 1010.5 |
| 20260905235250 | 71 | 147 | 0.0 | 0.9 | 0.00 | 0.58 | 0.58 | 95 | 1010.3 |
| 20260905234746 | 71 | 135 | 0.0 | 0.0 | 0.00 | 0.58 | 0.58 | 95 | 1010.4 |
| 20260905234241 | 71 | 128 | 0.0 | 0.0 | 0.00 | 0.58 | 0.58 | 95 | 1010.4 |
| 20260905233736 | 71 | 140 | 0.9 | 1.7 | 0.00 | 0.58 | 0.58 | 95 | 1010.3 |
| 20260905233236 | 71 | 117 | 0.9 | 1.7 | 0.00 | 0.58 | 0.58 | 95 | 1010.1 |
| 20260905232730 | 71 | 130 | 0.0 | 0.9 | 0.00 | 0.58 | 0.58 | 95 | 1010.3 |
| 20260905232226 | 71 | 103 | 0.9 | 1.7 | 0.00 | 0.58 | 0.58 | 95 | 1010.4 |
| 20260905231722 | 71 | 115 | 0.9 | 1.7 | 0.00 | 0.58 | 0.58 | 95 | 1010.6 |
| 20260905231217 | 71 | 303 | 0.9 | 0.9 | 0.00 | 0.58 | 0.58 | 95 | 1010.3 |
| 20260905230713 | 71 | 324 | 0.9 | 1.7 | 0.00 | 0.58 | 0.58 | 95 | 1010.1 |
| 20260905230210 | 71 | 243 | 1.7 | 2.6 | 0.00 | 0.58 | 0.58 | 95 | 1010.4 |
| 20260905225705 | 71 | 118 | 1.7 | 4.3 | 0.00 | 0.58 | 0.58 | 95 | 1010.2 |
| 20260905225200 | 71 | 301 | 2.6 | 4.3 | 0.00 | 0.58 | 0.58 | 95 | 1010.0 |
| 20260905224659 | 72 | 262 | 4.3 | 6.1 | 0.00 | 0.58 | 0.58 | 95 | 1010.0 |
| 20260905224154 | 72 | 241 | 2.6 | 4.3 | 0.00 | 0.58 | 0.58 | 95 | 1009.4 |
| 20260905223650 | 72 | 172 | 0.9 | 0.9 | 0.00 | 0.58 | 0.58 | 95 | 1009.5 |
| 20260905223147 | 71 | 135 | 0.0 | 0.0 | 0.00 | 0.58 | 0.58 | 95 | 1009.2 |
| 20260905222643 | 71 | 124 | 0.0 | 0.9 | 0.00 | 0.58 | 0.58 | 95 | 1009.2 |
| 20260905222143 | 71 | 149 | 0.9 | 0.9 | 0.00 | 0.58 | 0.58 | 95 | 1008.8 |
| 20260905221638 | 71 | 125 | 0.0 | 0.9 | 0.00 | 0.58 | 0.58 | 95 | 1009.1 |
| 20260905221135 | 71 | 150 | 0.9 | 1.7 | 0.05 | 0.58 | 0.58 | 95 | 1008.8 |
| 20260905220630 | 70 | 88 | 1.7 | 2.6 | 0.05 | 0.58 | 0.58 | 95 | 1008.9 |
| 20260905220126 | 70 | 97 | 0.9 | 1.7 | 0.00 | 0.57 | 0.57 | 95 | 1009.3 |
| 20260905215626 | 70 | 128 | 1.7 | 2.6 | 0.00 | 0.57 | 0.57 | 95 | 1009.6 |
| 20260905215121 | 70 | 117 | 0.9 | 1.7 | 0.00 | 0.57 | 0.57 | 95 | 1010.1 |
| 20260905214617 | 70 | 144 | 1.7 | 4.3 | 0.00 | 0.57 | 0.57 | 95 | 1010.3 |
| 20260905214112 | 70 | 84 | 1.7 | 1.7 | 0.00 | 0.57 | 0.57 | 95 | 1010.4 |
| 20260905213607 | 70 | 102 | 2.6 | 4.3 | 0.00 | 0.57 | 0.57 | 95 | 1010.3 |
| 20260905213102 | 70 | 1 | 2.6 | 2.6 | 0.00 | 0.57 | 0.57 | 95 | 1010.2 |
| 20260905212557 | 70 | 124 | 0.9 | 0.9 | 0.00 | 0.57 | 0.57 | 95 | 1009.9 |
| 20260905212056 | 69 | 135 | 0.0 | 2.6 | 0.00 | 0.57 | 0.57 | 95 | 1010.2 |
| 20260905211552 | 69 | 212 | 1.7 | 5.2 | 0.00 | 0.57 | 0.57 | 95 | 1010.3 |
| 20260905211047 | 69 | 235 | 3.5 | 4.3 | 0.07 | 0.57 | 0.57 | 95 | 1011.0 |
| 20260905210543 | 69 | 241 | 2.6 | 4.3 | 0.05 | 0.56 | 0.56 | 95 | 1010.9 |
| 20260905210038 | 69 | 309 | 0.9 | 4.3 | 0.66 | 0.56 | 0.56 | 95 | 1011.4 |
| 20260905205537 | 69 | 120 | 6.1 | 13.9 | 2.29 | 0.55 | 0.55 | 95 | 1011.4 |
| 20260905205037 | 69 | 76 | 7.0 | 9.6 | 2.10 | 0.44 | 0.44 | 95 | 1012.6 |
| 20260905204532 | 72 | 122 | 13.0 | 17.4 | 0.94 | 0.17 | 0.17 | 95 | 1012.3 |
| 20260905204027 | 73 | 78 | 13.9 | 23.5 | 0.54 | 0.09 | 0.09 | 95 | 1011.2 |
| 20260905203526 | 77 | 101 | 8.7 | 15.6 | 0.07 | 0.01 | 0.01 | 89 | 1010.3 |
| 20260905203022 | 90 | 131 | 11.3 | 19.1 | 0.00 | 0.00 | 0.00 | 71 | 1010.9 |
| 20260905202517 | 91 | 125 | 0.0 | 1.7 | 0.00 | 0.00 | 0.00 | 68 | 1009.0 |
| 20260905202012 | 92 | 99 | 0.0 | 1.7 | 0.00 | 0.00 | 0.00 | 68 | 1009.1 |
| 20260905201508 | 93 | 226 | 0.9 | 4.3 | 0.00 | 0.00 | 0.00 | 66 | 1008.8 |
| 20260905201007 | 93 | 240 | 6.1 | 7.0 | 0.00 | 0.00 | 0.00 | 64 | 1008.9 |
| 20260905200503 | 93 | 167 | 0.9 | 1.7 | 0.00 | 0.00 | 0.00 | 67 | 1008.7 |
| 20260905200002 | 94 | 178 | 1.7 | 2.6 | 0.00 | 0.00 | 0.00 | 67 | 1008.8 |
| 20260905195457 | 95 | 329 | 0.9 | 2.6 | 0.00 | 0.00 | 0.00 | 63 | 1008.7 |
| 20260905194952 | 96 | 245 | 1.7 | 2.6 | 0.00 | 0.00 | 0.00 | 61 | 1008.9 |
| 20260905194452 | 96 | 315 | 2.6 | 5.2 | 0.00 | 0.00 | 0.00 | 60 | 1009.1 |
| 20260905193946 | 96 | 157 | 1.7 | 1.7 | 0.00 | 0.00 | 0.00 | 60 | 1009.3 |
| 20260905193446 | 96 | 98 | 0.9 | 4.3 | 0.00 | 0.00 | 0.00 | 61 | 1009.3 |
| 20260905192942 | 97 | 62 | 1.7 | 2.6 | 0.00 | 0.00 | 0.00 | 62 | 1009.2 |
| 20260905192436 | 95 | 307 | 1.7 | 2.6 | 0.00 | 0.00 | 0.00 | 62 | 1009.1 |
| 20260905191932 | 94 | 334 | 3.5 | 4.3 | 0.00 | 0.00 | 0.00 | 63 | 1009.3 |
| 20260905191426 | 94 | 196 | 1.7 | 2.6 | 0.00 | 0.00 | 0.00 | 64 | 1009.2 |
| 20260905190926 | 93 | 176 | 0.9 | 0.9 | 0.00 | 0.00 | 0.00 | 64 | 1009.2 |
| 20260905190423 | 94 | 102 | 0.9 | 1.7 | 0.00 | 0.00 | 0.00 | 64 | 1009.5 |
| 20260905185922 | 95 | 242 | 2.6 | 4.3 | 0.00 | 0.00 | 0.00 | 62 | 1009.5 |
| 20260905185418 | 95 | 75 | 0.9 | 4.3 | 0.00 | 0.00 | 0.00 | 61 | 1009.4 |
| 20260905184916 | 96 | 301 | 2.6 | 5.2 | 0.00 | 0.00 | 0.00 | 60 | 1009.6 |
| 20260905184411 | 95 | 111 | 0.9 | 1.7 | 0.00 | 0.00 | 0.00 | 62 | 1009.7 |
| 20260905183909 | 94 | 352 | 1.7 | 5.2 | 0.00 | 0.00 | 0.00 | 63 | 1009.9 |
| 20260905183404 | 94 | 146 | 0.9 | 1.7 | 0.00 | 0.00 | 0.00 | 62 | 1009.9 |
| 20260905182900 | 95 | 313 | 1.7 | 5.2 | 0.00 | 0.00 | 0.00 | 63 | 1009.9 |
| 20260905182358 | 96 | 335 | 2.6 | 5.2 | 0.00 | 0.00 | 0.00 | 63 | 1009.8 |
| 20260905181855 | 96 | 306 | 2.6 | 4.3 | 0.00 | 0.00 | 0.00 | 60 | 1010.1 |
| 20260905181355 | 95 | 94 | 2.6 | 6.1 | 0.00 | 0.00 | 0.00 | 63 | 1010.1 |
| 20260905180854 | 96 | 325 | 2.6 | 4.3 | 0.00 | 0.00 | 0.00 | 62 | 1010.2 |
| 20260905180349 | 96 | 104 | 0.9 | 2.6 | 0.00 | 0.00 | 0.00 | 58 | 1010.3 |
| 20260905175844 | 95 | 256 | 2.6 | 5.2 | 0.00 | 0.00 | 0.00 | 61 | 1010.7 |
| 20260905175344 | 95 | 268 | 1.7 | 4.3 | 0.00 | 0.00 | 0.00 | 61 | 1010.8 |
| 20260905174839 | 95 | 288 | 5.2 | 7.0 | 0.00 | 0.00 | 0.00 | 61 | 1011.1 |
| 20260905174335 | 95 | 130 | 0.9 | 1.7 | 0.00 | 0.00 | 0.00 | 64 | 1010.8 |
| 20260905173830 | 94 | 106 | 4.3 | 6.1 | 0.00 | 0.00 | 0.00 | 62 | 1011.2 |
| 20260905173326 | 94 | 159 | 1.7 | 5.2 | 0.00 | 0.00 | 0.00 | 63 | 1011.2 |
| 20260905172826 | 95 | 267 | 4.3 | 5.2 | 0.00 | 0.00 | 0.00 | 60 | 1011.4 |
| 20260905172324 | 95 | 123 | 0.9 | 2.6 | 0.00 | 0.00 | 0.00 | 60 | 1011.4 |
| 20260905171820 | 95 | 336 | 4.3 | 5.2 | 0.00 | 0.00 | 0.00 | 61 | 1011.3 |
| 20260905171317 | 95 | 129 | 0.0 | 2.6 | 0.00 | 0.00 | 0.00 | 65 | 1011.3 |
| 20260905170813 | 94 | 63 | 3.5 | 4.3 | 0.00 | 0.00 | 0.00 | 64 | 1011.5 |
| 20260905170309 | 95 | 42 | 2.6 | 4.3 | 0.00 | 0.00 | 0.00 | 66 | 1011.5 |
| 20260905165807 | 94 | 74 | 1.7 | 4.3 | 0.00 | 0.00 | 0.00 | 65 | 1011.6 |
| 20260905165306 | 94 | 104 | 1.7 | 5.2 | 0.00 | 0.00 | 0.00 | 64 | 1011.8 |
| 20260905164757 | 94 | 327 | 1.7 | 5.2 | 0.00 | 0.00 | 0.00 | 65 | 1011.6 |
| 20260905164252 | 94 | 309 | 5.2 | 6.1 | 0.00 | 0.00 | 0.00 | 66 | 1011.8 |
| 20260905163748 | 93 | 151 | 0.9 | 2.6 | 0.00 | 0.00 | 0.00 | 65 | 1012.1 |
| 20260905163244 | 94 | 163 | 2.6 | 4.3 | 0.00 | 0.00 | 0.00 | 65 | 1012.0 |
| 20260905162740 | 94 | 140 | 0.0 | 1.7 | 0.00 | 0.00 | 0.00 | 66 | 1012.1 |
| 20260905162239 | 93 | 115 | 0.9 | 2.6 | 0.00 | 0.00 | 0.00 | 66 | 1012.3 |
| 20260905161734 | 93 | 107 | 0.9 | 2.6 | 0.00 | 0.00 | 0.00 | 68 | 1012.2 |
| 20260905161232 | 93 | 311 | 1.7 | 2.6 | 0.00 | 0.00 | 0.00 | 68 | 1012.4 |
| 20260905160726 | 92 | 357 | 1.7 | 2.6 | 0.00 | 0.00 | 0.00 | 68 | 1012.5 |
| 20260905160225 | 92 | 6 | 3.5 | 5.2 | 0.00 | 0.00 | 0.00 | 69 | 1012.4 |
| 20260905155720 | 92 | 105 | 1.7 | 1.7 | 0.00 | 0.00 | 0.00 | 69 | 1012.4 |
| 20260905155219 | 91 | 92 | 1.7 | 2.6 | 0.00 | 0.00 | 0.00 | 69 | 1012.7 |
| 20260905154713 | 91 | 61 | 2.6 | 4.3 | 0.00 | 0.00 | 0.00 | 71 | 1012.4 |
| 20260905154209 | 91 | 350 | 2.6 | 6.1 | 0.00 | 0.00 | 0.00 | 68 | 1012.6 |
| 20260905153705 | 91 | 44 | 3.5 | 5.2 | 0.00 | 0.00 | 0.00 | 70 | 1012.4 |
| 20260905153200 | 91 | 111 | 0.9 | 5.2 | 0.00 | 0.00 | 0.00 | 72 | 1012.6 |
| 20260905152655 | 91 | 98 | 0.9 | 2.6 | 0.00 | 0.00 | 0.00 | 73 | 1012.7 |
| 20260905152149 | 91 | 69 | 2.6 | 4.3 | 0.00 | 0.00 | 0.00 | 72 | 1012.6 |
| 20260905151644 | 91 | 86 | 1.7 | 1.7 | 0.00 | 0.00 | 0.00 | 73 | 1012.5 |
| 20260905151141 | 90 | 101 | 2.6 | 4.3 | 0.00 | 0.00 | 0.00 | 73 | 1012.5 |
| 20260905150635 | 90 | 290 | 2.6 | 6.1 | 0.00 | 0.00 | 0.00 | 74 | 1012.7 |
| 20260905150133 | 89 | 27 | 2.6 | 4.3 | 0.00 | 0.00 | 0.00 | 74 | 1012.5 |
| 20260905145632 | 89 | 17 | 2.6 | 4.3 | 0.00 | 0.00 | 0.00 | 74 | 1012.4 |
| 20260905145131 | 89 | 84 | 0.9 | 4.3 | 0.00 | 0.00 | 0.00 | 75 | 1012.9 |
| 20260905144626 | 89 | 30 | 1.7 | 6.1 | 0.00 | 0.00 | 0.00 | 74 | 1012.6 |
| 20260905144125 | 89 | 308 | 4.3 | 5.2 | 0.00 | 0.00 | 0.00 | 75 | 1012.7 |
| 20260905143620 | 89 | 175 | 0.9 | 1.7 | 0.00 | 0.00 | 0.00 | 77 | 1012.6 |
| 20260905143115 | 87 | 81 | 2.6 | 2.6 | 0.00 | 0.00 | 0.00 | 78 | 1012.8 |
| 20260905142613 | 87 | 36 | 2.6 | 5.2 | 0.00 | 0.00 | 0.00 | 78 | 1012.8 |
| 20260905142108 | 88 | 137 | 1.7 | 2.6 | 0.00 | 0.00 | 0.00 | 78 | 1012.6 |
| 20260905141607 | 87 | 105 | 0.9 | 1.7 | 0.00 | 0.00 | 0.00 | 79 | 1012.7 |
| 20260905141104 | 87 | 70 | 2.6 | 2.6 | 0.00 | 0.00 | 0.00 | 78 | 1012.8 |
| 20260905140559 | 86 | 80 | 0.9 | 5.2 | 0.00 | 0.00 | 0.00 | 81 | 1012.7 |
| 20260905140058 | 86 | 43 | 2.6 | 4.3 | 0.00 | 0.00 | 0.00 | 80 | 1012.9 |
| 20260905135553 | 86 | 60 | 2.6 | 4.3 | 0.00 | 0.00 | 0.00 | 80 | 1012.9 |
| 20260905135053 | 85 | 135 | 0.9 | 0.9 | 0.00 | 0.00 | 0.00 | 81 | 1012.7 |
| 20260905134548 | 85 | 69 | 0.9 | 2.6 | 0.00 | 0.00 | 0.00 | 83 | 1012.9 |
| 20260905134047 | 85 | 137 | 0.0 | 1.7 | 0.00 | 0.00 | 0.00 | 84 | 1012.8 |
| 20260905133543 | 85 | 103 | 0.9 | 0.9 | 0.00 | 0.00 | 0.00 | 85 | 1012.9 |
| 20260905133042 | 83 | 259 | 2.6 | 5.2 | 0.00 | 0.00 | 0.00 | 87 | 1013.1 |
| 20260905132542 | 82 | 67 | 2.6 | 6.1 | 0.00 | 0.00 | 0.00 | 88 | 1013.0 |
| 20260905132037 | 82 | 74 | 2.6 | 6.1 | 0.00 | 0.00 | 0.00 | 88 | 1013.0 |
| 20260905131533 | 82 | 337 | 4.3 | 6.1 | 0.00 | 0.00 | 0.00 | 88 | 1012.8 |
| 20260905131028 | 82 | 97 | 0.0 | 4.3 | 0.00 | 0.00 | 0.00 | 89 | 1012.7 |
| 20260905130527 | 82 | 135 | 1.7 | 5.2 | 0.00 | 0.00 | 0.00 | 89 | 1013.2 |
| 20260905130022 | 82 | 322 | 4.3 | 6.1 | 0.00 | 0.00 | 0.00 | 89 | 1013.1 |
| 20260905125521 | 81 | 44 | 2.6 | 5.2 | 0.00 | 0.00 | 0.00 | 91 | 1013.2 |
| 20260905125017 | 80 | 82 | 1.7 | 2.6 | 0.00 | 0.00 | 0.00 | 92 | 1013.1 |
| 20260905124514 | 80 | 18 | 0.9 | 2.6 | 0.00 | 0.00 | 0.00 | 92 | 1013.1 |
| 20260905124009 | 80 | 287 | 1.7 | 7.0 | 0.00 | 0.00 | 0.00 | 92 | 1013.1 |
| 20260905123505 | 80 | 299 | 4.3 | 6.1 | 0.00 | 0.00 | 0.00 | 92 | 1013.0 |
| 20260905123001 | 80 | 60 | 1.7 | 6.1 | 0.00 | 0.00 | 0.00 | 93 | 1013.0 |
| 20260905122455 | 79 | 81 | 2.6 | 4.3 | 0.00 | 0.00 | 0.00 | 94 | 1013.1 |
| 20260905121950 | 79 | 155 | 1.7 | 4.3 | 0.00 | 0.00 | 0.00 | 94 | 1013.0 |
| 20260905121445 | 79 | 359 | 3.5 | 4.3 | 0.00 | 0.00 | 0.00 | 95 | 1013.2 |
| 20260905120944 | 79 | 27 | 2.6 | 5.2 | 0.00 | 0.00 | 0.00 | 95 | 1013.3 |
| 20260905120439 | 78 | 67 | 2.6 | 5.2 | 0.00 | 0.00 | 0.00 | 95 | 1013.2 |
| 20260905115934 | 78 | 217 | 0.9 | 4.3 | 0.00 | 0.00 | 0.00 | 95 | 1012.8 |
| 20260905115433 | 78 | 278 | 2.6 | 4.3 | 0.00 | 0.00 | 0.00 | 95 | 1012.8 |
| 20260905114929 | 78 | 339 | 1.7 | 4.3 | 0.00 | 0.00 | 0.00 | 95 | 1012.8 |
| 20260905114428 | 78 | 10 | 1.7 | 2.6 | 0.00 | 0.00 | 0.00 | 95 | 1013.0 |
| 20260905113927 | 77 | 124 | 1.7 | 4.3 | 0.00 | 0.00 | 0.00 | 95 | 1012.7 |
| 20260905113423 | 77 | 130 | 0.9 | 4.3 | 0.00 | 0.00 | 0.00 | 95 | 1012.7 |
| 20260905112918 | 77 | 134 | 1.7 | 6.1 | 0.00 | 0.00 | 0.00 | 95 | 1012.7 |
| 20260905112413 | 77 | 224 | 1.7 | 2.6 | 0.00 | 0.00 | 0.00 | 95 | 1012.4 |
| 20260905111908 | 77 | 295 | 1.7 | 1.7 | 0.00 | 0.00 | 0.00 | 95 | 1012.5 |
| 20260905111408 | 77 | 164 | 2.6 | 4.3 | 0.00 | 0.00 | 0.00 | 95 | 1012.3 |
| 20260905110902 | 77 | 333 | 2.6 | 4.3 | 0.00 | 0.00 | 0.00 | 95 | 1012.4 |
| 20260905110356 | 77 | 184 | 1.7 | 4.3 | 0.00 | 0.00 | 0.00 | 95 | 1012.6 |
| 20260905105851 | 77 | 41 | 2.6 | 4.3 | 0.00 | 0.00 | 0.00 | 95 | 1012.5 |